Weather History for KHFD - August, 2013

Change the Weather History Date:

Tuesday, August 13, 2013

  Actual Average Record
Temperature  
Mean Temperature 70 °F -  
Max Temperature 75 °F 79 °F 98 °F (2005)
Min Temperature 66 °F 60 °F 46 °F (1957)
Cooling Degree Days 6    
Growing Degree Days 20 (Base 50)    
Moisture  
Dew Point 67 °F    
Average Humidity 85    
Maximum Humidity 96    
Minimum Humidity 64    
Precipitation  
Precipitation 0.04 in - - ()
Sea Level Pressure  
Sea Level Pressure 29.80 in    
Wind  
Wind Speed 4 mph (SSE)    
Max Wind Speed 9 mph    
Max Gust Speed -    
Visibility 7 miles    
Events Rain    
Averages and records for this station are not official NWS values.
T = Trace of Precipitation, MM = Missing Value Source: NWS Daily Summary

Daily Weather History Graph

Daily Weather History Graph

Search for Another Location

Airport or City:

Trip Planner

Search our weather history database for the weather conditions in past years. The results will help you decide how hot, cold, wet, or windy it might be!

Date:

Astronomy

Aug. 13, 2013 Rise Set
Actual Time 5:57 AM EDT 7:52 PM EDT
Civil Twilight 5:27 AM EDT 8:22 PM EDT
Nautical Twilight 4:50 AM EDT 8:59 PM EDT
Astronomical Twilight 4:10 AM EDT 9:39 PM EDT
Moon 12:55 PM EDT (8/13) 11:18 PM EDT (8/13)
Length of Visible Light 14h 55m
Length of Day
13h 55m
Waxing Crescent, 41% of the Moon is Illuminated
Aug 13
Waxing Crescent
Aug 14
First Quarter
Aug 20
Full
Aug 28
Last Quarter
Sep 5
New

Hourly Weather History & Observations

Time (EDT) Temp. Dew Point Humidity Pressure Visibility Wind Dir Wind Speed Gust Speed Precip Events Conditions
12:53 AM 66.9 °F 63.0 °F 87% 29.93 in 10.0 mi Calm Calm - N/A   Scattered Clouds
1:18 AM 68.0 °F 62.6 °F 83% 29.92 in 10.0 mi Calm Calm - N/A   Mostly Cloudy
1:32 AM 68.0 °F 62.6 °F 83% 29.91 in 10.0 mi Calm Calm - N/A   Overcast
1:53 AM 68.0 °F 64.0 °F 87% 29.91 in 10.0 mi Calm Calm - N/A   Overcast
2:53 AM 68.0 °F 66.0 °F 93% 29.89 in 6.0 mi South 4.6 mph - N/A   Overcast
3:02 AM 68.0 °F 66.2 °F 94% 29.88 in 6.0 mi SSE 3.5 mph - N/A   Overcast
3:53 AM 69.1 °F 66.9 °F 93% 29.87 in 4.0 mi South 4.6 mph - N/A   Overcast
4:53 AM 68.0 °F 66.9 °F 96% 29.86 in 4.0 mi South 5.8 mph - N/A   Overcast
5:53 AM 69.1 °F 66.9 °F 93% 29.86 in 4.0 mi South 8.1 mph - N/A   Overcast
6:44 AM 69.8 °F 66.2 °F 88% 29.85 in 2.0 mi SE 4.6 mph - N/A   Overcast
6:53 AM 69.1 °F 66.9 °F 93% 29.84 in 2.0 mi SE 4.6 mph - N/A   Overcast
7:53 AM 70.0 °F 68.0 °F 93% 29.84 in 2.0 mi South 5.8 mph - 0.00 in Rain Light Rain
8:21 AM 69.8 °F 68.0 °F 94% 29.83 in 2.0 mi South 4.6 mph - 0.01 in Rain Light Rain
8:53 AM 71.1 °F 69.1 °F 93% 29.83 in 2.0 mi South 6.9 mph - 0.01 in Rain Light Rain
9:36 AM 71.6 °F 69.8 °F 94% 29.82 in 2.0 mi South 3.5 mph - 0.00 in   Overcast
9:53 AM 72.0 °F 69.1 °F 91% 29.83 in 2.0 mi South 4.6 mph - 0.00 in Rain Light Rain
10:00 AM 73.4 °F 69.8 °F 88% 29.83 in 5.0 mi South 6.9 mph - 0.00 in Rain Light Rain
10:14 AM 73.4 °F 69.8 °F 88% 29.83 in 4.0 mi South 4.6 mph - 0.01 in Rain Light Rain
10:21 AM 71.6 °F 69.8 °F 94% 29.83 in 4.0 mi South 5.8 mph - 0.01 in Rain Light Rain
10:31 AM 71.6 °F 69.8 °F 94% 29.82 in 5.0 mi SSE 5.8 mph - 0.02 in Rain Light Rain
10:41 AM 73.4 °F 69.8 °F 88% 29.82 in 5.0 mi SSE 4.6 mph - 0.02 in Rain Light Rain
10:53 AM 73.0 °F 70.0 °F 90% 29.82 in 4.0 mi SSE 5.8 mph - 0.02 in Rain Light Rain
11:19 AM 73.4 °F 69.8 °F 88% 29.80 in 5.0 mi SE 6.9 mph - 0.00 in Rain Light Rain
11:44 AM 73.4 °F 69.8 °F 88% 29.79 in 7.0 mi SSE 6.9 mph - 0.00 in Rain Light Rain
11:53 AM 73.0 °F 70.0 °F 90% 29.79 in 8.0 mi SSE 8.1 mph - 0.00 in Rain Light Rain
12:43 PM 73.4 °F 69.8 °F 88% 29.77 in 10.0 mi SSE 5.8 mph - 0.01 in   Overcast
12:53 PM 73.0 °F 68.0 °F 84% 29.78 in 10.0 mi SE 6.9 mph - 0.01 in   Overcast
1:14 PM 73.4 °F 66.2 °F 78% 29.77 in 10.0 mi South 4.6 mph - N/A   Overcast
1:53 PM 73.9 °F 66.0 °F 76% 29.75 in 10.0 mi South 4.6 mph - N/A   Partly Cloudy
2:53 PM 75.0 °F 64.0 °F 69% 29.74 in 10.0 mi SSE 4.6 mph - N/A   Overcast
3:53 PM 75.0 °F 64.0 °F 69% 29.72 in 10.0 mi South 8.1 mph - N/A   Overcast
4:53 PM 75.9 °F 63.0 °F 64% 29.71 in 10.0 mi SSE 5.8 mph - N/A   Mostly Cloudy
5:53 PM 75.0 °F 63.0 °F 66% 29.70 in 10.0 mi ESE 3.5 mph - N/A   Partly Cloudy
6:53 PM 75.0 °F 64.0 °F 69% 29.69 in 10.0 mi South 4.6 mph - N/A   Clear
7:53 PM 73.0 °F 64.9 °F 76% 29.69 in 10.0 mi SSE 4.6 mph - N/A   Clear
8:53 PM 71.1 °F 66.0 °F 84% 29.72 in 10.0 mi South 4.6 mph - N/A   Clear
9:44 PM 71.6 °F 66.2 °F 83% 29.73 in 10.0 mi SSW 9.2 mph - N/A   Overcast
9:53 PM 71.1 °F 64.9 °F 81% 29.74 in 10.0 mi SSW 9.2 mph - N/A   Mostly Cloudy
10:01 PM 71.6 °F 64.4 °F 78% 29.73 in 10.0 mi SSW 8.1 mph - N/A   Mostly Cloudy
10:53 PM 71.1 °F 62.1 °F 73% 29.72 in 10.0 mi Calm Calm - 0.00 in Rain Light Rain
11:53 PM 69.1 °F 62.1 °F 78% 29.72 in 10.0 mi Calm Calm - N/A   Scattered Clouds